{"data":{"norad_id":53032,"intl_designator":"2022-076AY","name":"STARLINK-4115","alt_names":[],"object_type":"PAYLOAD","status":"ACTIVE","operator":null,"country":"US","launch_date":"2022-07-07","launch_site_code":"AFETR","launch_vehicle":null,"mission":null,"orbit_class":"UNKNOWN","rcs_meters":null,"size_class":null,"mass_kg":null,"dimensions":null,"purposes":["comms"],"wikipedia_slug":null,"has_3d_model":false,"image_url":null,"decayed_at":null,"tle_current":{"epoch":"2026-09-20T01:31:44.688288Z","epoch_age_seconds":107155,"freshness":"FRESH","line1":"1 53032U 22076AY  26263.06371167  .00002844  00000+0  95288-4 0  9993","line2":"2 53032  53.1581 275.4410 0001455  97.4763 262.6404 15.34400586232559","mean_motion":15.34400586,"eccentricity":0.0001455,"inclination_deg":53.1581,"raan_deg":275.441,"arg_perigee_deg":97.4763,"mean_anomaly_deg":262.6404,"bstar":9.5288e-5,"rev_number":23255,"period_min":93.847722240117,"perigee_km":461.70615649064,"apogee_km":463.6968404937,"semimajor_km":6840.8384984922,"source":"CELESTRAK","updated_at":"2026-09-20T09:00:40.148279Z"}}}